RH
10 10 8 8 8 9 9 9 13 14 16 20 22 24 23 21 22 21 21 22 23 24 26 28 28 28 26 25 25 26 27 26 27 29 31 30 23 22 23 23 23 24 26 27 26 25 24 23 23 24 24 24 24 24 24 24 24 22 22 21 22 24 29 33 35 39 42 46 52 55 55 52 50 48 50 53 53 57 59 58 60 60 56 60 68 68 67 66 68 68 67 66 67 68 68 70 71
8 8 7 7 8 8 9 10 13 16 18 22 23 24 23 21 21 21 21 22 23 24 26 27 27 27 26 25 25 25 27 28 27 28 28 25 23 22 22 22 22 23 24 25 25 24 24 23 23 23 23 23 23 23 24 24 25 24 23 22 22 22 23 27 29 33 38 41 44 48 56 57 53 49 50 51 49 56 59 57 59 62 62 62 67 69 68 68 73 70 65 63 61 61 64 70 69
7 7 8 8 8 9 9 10 14 17 18 22 24 22 22 21 21 21 21 23 23 25 26 27 26 26 26 26 26 26 28 28 26 26 26 23 23 21 19 20 20 22 22 22 22 22 22 22 22 22 22 22 23 22 22 23 24 25 25 23 23 23 22 22 22 25 28 34 38 42 52 57 56 55 54 50 49 52 51 53 55 59 62 62 65 66 66 69 73 72 68 65 62 61 63 69 72
7 7 8 8 9 10 11 12 14 17 19 23 25 22 21 21 21 20 21 23 25 26 27 27 27 27 27 27 27 26 26 26 23 23 24 20 18 17 16 17 17 18 18 18 18 18 19 20 21 22 23 22 22 22 21 21 22 24 25 25 24 24 24 22 20 19 20 24 30 35 42 48 53 58 57 54 56 54 47 49 52 53 54 55 61 64 67 67 69 71 70 68 66 65 68 68 68
8 8 8 8 10 11 12 13 14 17 21 23 24 22 21 21 20 20 22 24 26 27 28 28 27 28 28 28 28 25 24 24 20 18 19 17 14 13 14 13 13 13 14 14 15 16 17 18 19 21 22 23 23 23 23 23 22 23 24 26 25 25 26 26 23 20 18 18 21 26 30 36 43 48 53 56 59 58 53 52 54 55 49 47 54 60 65 69 74 76 73 69 66 65 69 69 66
8 8 8 8 10 12 13 15 16 18 20 21 22 21 20 20 21 21 22 23 25 27 28 28 28 28 26 25 24 20 19 18 16 14 13 13 12 11 11 11 11 11 11 12 13 14 14 15 16 17 18 18 19 20 22 23 24 24 24 25 25 25 25 27 27 23 20 18 18 20 22 27 32 37 43 48 51 52 53 54 58 58 53 51 52 55 62 73 80 78 78 73 66 63 63 67 68
8 9 9 9 11 13 13 15 17 19 20 20 19 19 19 21 22 22 22 23 24 25 25 26 26 24 20 18 16 14 12 12 12 11 10 10 10 10 10 10 10 10 10 10 11 11 11 12 12 13 14 15 16 17 18 20 22 24 25 26 26 26 25 25 27 27 24 20 19 19 19 21 25 30 35 40 43 44 46 48 50 52 56 59 53 53 58 65 70 68 73 75 73 70 66 69 69
9 9 10 11 12 14 15 17 18 19 20 20 18 19 20 21 22 22 22 23 24 23 22 22 20 16 14 12 12 12 11 10 10 10 9 9 9 9 9 9 9 9 9 9 9 9 10 9 10 10 11 13 14 15 16 17 19 21 23 25 26 26 26 25 25 27 28 25 22 20 19 19 21 24 29 34 38 39 40 42 43 45 51 55 52 54 53 50 53 54 62 69 73 73 71 73 67
10 10 11 12 13 14 16 18 19 19 20 20 18 18 20 20 20 21 21 21 22 21 19 16 14 12 11 11 10 11 11 9 9 9 9 9 9 9 8 8 9 9 9 8 8 8 8 9 9 9 9 10 12 13 14 15 16 18 20 21 23 23 25 27 25 25 27 29 27 23 21 20 19 21 24 27 32 36 38 39 39 41 43 45 48 52 51 47 46 48 56 60 63 68 71 68 63
10 11 13 13 13 15 18 19 20 20 20 20 18 18 19 19 18 18 18 18 19 18 15 13 12 11 11 11 10 10 10 9 9 9 8 9 9 8 8 8 8 8 8 7 8 8 8 8 8 8 8 9 10 11 13 14 15 16 17 18 18 19 21 24 26 26 25 28 30 29 26 23 21 20 21 23 26 31 35 37 37 39 40 41 43 45 49 52 49 46 48 49 52 62 70 64 63
12 12 13 13 13 16 18 19 20 20 20 19 17 17 17 17 16 14 14 13 14 14 13 12 12 12 12 10 10 9 9 8 8 9 8 8 8 8 8 8 8 8 8 7 7 8 8 8 8 8 8 9 9 10 12 13 14 15 16 16 15 16 17 18 22 26 27 27 30 32 31 28 26 23 22 22 23 25 29 33 36 39 40 40 41 41 43 47 46 42 38 39 45 53 66 68 64
13 14 13 13 15 16 17 18 19 19 18 16 14 15 16 15 13 11 10 10 11 12 11 12 12 12 11 9 9 9 9 9 8 8 8 8 8 8 8 8 8 8 8 8 7 8 8 8 8 8 8 9 9 10 11 12 13 14 15 15 15 15 15 15 16 21 26 29 30 32 33 33 32 29 26 24 24 24 25 28 32 36 39 41 41 41 41 42 43 41 37 35 38 44 59 68 65
14 15 13 14 16 16 17 18 19 19 18 15 14 15 14 13 10 9 9 9 10 10 10 10 11 11 10 9 9 9 9 9 8 8 8 8 8 8 8 8 8 8 8 8 7 8 8 8 8 8 8 8 9 9 10 12 13 14 15 15 15 15 14 14 14 16 21 26 29 30 32 34 35 34 32 29 27 25 25 25 27 30 33 38 41 42 42 42 44 43 39 36 33 37 48 59 64
15 16 14 15 17 16 18 18 17 18 18 15 14 13 12 10 9 9 9 8 8 9 9 9 10 11 11 10 9 9 9 8 8 8 8 8 8 8 8 8 8 8 8 8 7 7 7 8 8 8 8 8 9 9 10 10 12 13 13 14 13 13 13 13 14 15 17 22 26 28 29 32 35 36 36 33 31 30 29 28 26 26 27 32 37 41 42 43 46 44 41 39 35 34 41 51 59
15 16 15 15 16 15 16 17 16 16 16 13 12 12 10 9 9 10 9 8 7 8 8 8 9 10 10 9 8 9 9 8 8 8 8 8 8 8 8 9 8 8 8 8 8 7 7 7 7 8 8 8 9 9 9 10 10 11 11 12 12 12 12 12 13 14 15 18 22 27 28 30 32 35 36 36 34 33 33 33 31 28 25 26 30 35 40 42 45 43 42 45 42 37 38 43 47
15 15 14 13 13 14 14 14 15 14 13 12 12 11 9 9 9 10 9 9 9 8 8 9 9 9 9 10 9 9 9 8 8 8 8 9 9 9 9 9 8 8 8 8 8 8 8 7 7 8 8 8 8 9 9 10 10 10 11 11 11 11 12 12 13 13 15 17 20 24 28 30 31 32 34 35 36 35 35 35 35 33 29 25 25 28 33 37 40 41 41 46 46 39 36 40 43
14 14 12 11 11 12 13 13 13 13 12 11 11 11 9 8 9 10 9 9 9 9 8 8 8 8 8 9 9 8 8 8 8 8 8 9 9 9 9 9 8 8 8 8 8 7 8 7 7 7 8 8 8 9 9 9 10 10 10 11 11 11 12 12 13 14 15 17 19 22 26 31 34 35 34 32 33 36 35 35 35 36 35 30 27 26 28 31 35 40 41 45 51 46 40 42 44
15 14 12 11 11 12 13 12 13 13 12 11 12 11 10 8 9 10 9 9 10 8 8 8 8 8 8 8 8 8 8 7 7 8 8 9 9 10 9 9 8 8 8 7 7 7 7 7 7 7 7 8 8 8 8 8 9 9 10 10 11 11 12 12 13 14 15 17 20 22 25 30 35 36 36 32 31 34 36 36 33 34 37 34 31 29 30 32 34 39 41 44 51 52 45 42 41
17 16 14 12 12 13 14 14 15 15 13 12 12 12 11 9 10 10 9 9 9 8 7 8 8 7 7 8 8 7 7 7 7 7 8 9 9 9 9 8 8 7 7 7 7 7 7 7 7 7 7 7 7 7 8 8 8 8 9 10 10 11 12 12 13 13 15 18 21 23 25 30 33 34 34 33 32 33 35 37 33 31 33 37 40 35 32 32 35 41 45 47 49 50 49 45 41
19 17 15 14 14 15 15 16 17 16 15 13 12 13 12 11 11 11 10 8 8 7 6 7 7 7 7 8 8 7 7 7 7 7 7 9 8 8 8 8 8 7 7 6 6 6 6 6 6 6 6 7 7 7 7 7 8 8 8 8 9 10 10 11 12 13 14 18 23 26 27 30 32 32 31 30 31 30 32 35 34 33 32 40 46 42 38 34 33 40 47 50 50 50 51 50 47
20 18 16 17 17 16 16 17 18 18 17 15 13 13 12 11 11 11 11 9 7 6 7 7 7 8 8 8 8 7 7 7 7 7 7 8 8 8 8 7 7 7 6 6 6 6 5 6 6 6 6 6 6 6 7 7 7 7 8 8 8 8 9 10 11 12 13 16 22 27 28 29 31 31 29 28 29 28 29 31 34 39 40 42 45 44 45 43 38 39 44 48 50 51 52 51 50
21 21 20 20 20 18 17 18 19 19 18 17 15 13 11 11 11 12 11 9 6 6 7 8 8 8 7 8 7 7 7 6 7 7 7 8 8 8 7 7 7 6 6 6 6 6 6 6 6 6 6 6 6 6 6 6 6 7 7 8 8 8 8 9 9 11 12 14 18 24 27 28 30 31 31 31 31 30 30 29 32 41 43 42 42 41 44 48 47 42 40 45 48 49 49 47 47
21 22 23 22 22 21 20 20 19 20 20 19 16 12 12 12 11 11 12 9 8 8 8 8 8 7 7 7 7 7 7 6 7 7 7 8 8 8 7 6 6 6 6 6 6 6 7 7 7 7 7 7 7 6 6 6 6 6 7 7 8 8 9 9 9 9 11 13 15 19 23 26 30 32 35 35 35 34 32 31 31 35 39 41 41 38 43 50 52 48 42 42 45 45 46 45 46
22 22 24 24 24 23 23 24 22 21 22 21 18 14 13 12 11 12 11 9 8 9 8 8 8 7 7 7 8 7 7 6 6 7 7 7 8 8 7 6 6 6 6 6 7 7 7 7 7 7 7 7 7 7 7 7 7 6 7 7 7 8 8 9 9 9 10 12 14 16 19 23 27 31 35 36 36 35 34 34 32 32 36 40 41 38 43 50 51 53 49 44 42 41 44 47 49
24 24 25 26 26 25 26 26 24 22 22 21 20 17 14 12 12 12 10 8 8 9 8 8 8 7 7 8 8 7 7 7 6 6 7 7 7 8 7 6 5 6 6 6 7 7 7 7 8 7 7 7 7 7 7 7 7 6 6 6 7 8 9 9 9 10 10 11 13 15 18 21 24 28 32 35 37 36 34 34 33 33 33 35 37 36 42 49 50 52 52 48 42 38 41 45 48
27 27 28 27 27 27 27 27 24 22 21 21 21 18 15 14 13 11 9 9 9 8 8 8 8 7 7 8 8 7 7 7 7 7 7 7 7 8 8 6 6 6 6 7 7 7 7 7 7 7 8 8 8 8 7 7 7 7 7 6 6 7 8 9 9 10 10 11 12 15 18 21 23 26 30 33 36 36 34 33 33 34 34 34 34 34 39 47 51 51 51 50 46 40 37 41 48
30 31 31 30 29 29 28 26 24 23 22 21 20 18 17 17 14 9 7 9 9 8 8 8 8 8 8 8 8 7 7 7 7 7 7 7 7 7 8 8 7 7 7 7 7 7 7 7 7 8 8 9 9 9 9 8 8 7 7 7 6 7 8 9 9 10 10 11 12 14 17 21 23 25 29 32 34 35 35 34 33 33 34 35 34 34 36 43 49 49 49 50 49 45 39 41 48
34 34 32 31 31 30 28 25 25 24 23 23 22 19 19 20 16 11 8 8 8 9 9 8 8 8 8 8 9 8 7 7 7 7 7 7 7 7 8 8 8 7 7 7 7 7 8 8 8 8 9 9 10 10 10 9 9 8 8 7 7 7 8 9 9 10 11 11 12 13 16 20 24 27 29 32 33 35 36 38 38 37 36 34 33 34 36 42 48 49 51 53 51 49 45 43 45
35 33 30 29 30 29 28 26 26 25 24 25 23 20 19 19 17 13 10 9 8 9 9 8 8 8 8 8 8 8 8 7 7 7 7 7 7 7 7 8 8 8 7 7 8 8 8 9 9 9 10 10 11 11 11 10 10 10 9 8 8 7 8 9 9 10 11 12 12 13 15 19 23 28 31 34 34 35 36 37 39 42 43 39 33 33 36 45 50 50 53 54 52 52 51 49 47
33 32 30 29 28 29 29 28 27 25 24 25 24 20 19 18 16 14 13 10 9 9 9 9 8 8 8 7 8 8 8 8 8 7 7 8 7 7 7 8 8 8 8 8 8 8 9 10 10 11 11 11 12 12 12 11 11 10 10 9 9 9 9 9 9 10 11 12 12 12 14 17 22 28 31 33 35 36 36 37 39 43 45 43 39 36 36 42 50 51 51 53 53 53 55 55 53
30 30 31 30 29 29 30 30 28 26 25 27 25 23 21 17 16 15 14 12 11 10 9 9 9 8 7 7 7 8 8 8 8 7 7 8 8 8 8 8 8 8 8 9 9 9 9 10 11 12 12 12 12 13 12 12 11 10 10 10 10 10 10 10 10 10 11 12 13 13 14 16 20 27 29 29 31 33 35 37 40 44 45 44 44 43 40 40 46 50 50 50 51 53 55 56 55
29 29 31 31 30 30 30 32 32 28 27 28 26 24 22 19 17 16 15 14 12 10 9 9 8 8 7 7 7 8 7 7 8 8 7 7 7 8 8 8 8 8 8 9 9 9 9 10 11 13 13 13 13 13 13 13 13 12 11 10 10 10 10 11 11 11 12 13 14 13 14 15 20 26 28 26 26 27 29 33 38 41 42 41 40 43 44 42 44 47 49 49 49 52 54 55 55
29 29 30 31 31 30 30 32 34 32 30 29 27 26 24 22 20 18 17 16 14 12 10 9 9 8 8 7 7 7 7 7 7 7 7 7 7 8 8 8 8 8 9 9 9 10 9 10 12 14 14 14 14 15 14 14 14 13 12 11 10 10 11 11 11 12 13 15 16 16 16 16 20 25 25 25 25 25 25 28 33 35 34 35 35 37 42 44 44 45 46 47 48 49 52 54 55
30 30 30 32 32 32 31 32 34 34 32 30 29 28 27 24 21 20 18 17 16 15 12 10 10 10 9 7 6 6 7 7 6 6 7 7 7 8 8 8 8 8 9 9 9 9 9 10 12 15 15 15 15 16 16 16 16 15 14 12 11 11 11 12 12 12 13 15 17 20 21 21 23 24 24 25 26 26 25 25 30 32 31 32 33 34 37 40 42 45 45 46 47 49 51 52 54
31 31 31 33 34 33 33 32 33 33 33 32 30 28 27 25 22 20 19 19 18 16 14 12 11 11 11 10 7 6 6 6 6 6 7 7 8 8 8 8 8 9 9 9 9 9 9 10 12 15 16 16 17 17 17 18 18 17 16 14 13 12 12 12 12 13 14 14 17 21 25 26 26 26 25 26 28 28 28 27 29 32 32 31 31 31 33 35 41 46 46 44 46 48 49 50 50
31 32 33 35 35 34 34 33 34 35 34 33 30 28 26 26 24 21 20 19 19 17 15 14 12 11 11 11 9 6 6 6 6 6 6 7 7 8 8 8 8 9 9 9 10 9 9 10 12 15 16 17 18 18 19 19 19 19 18 16 14 13 13 13 13 14 14 15 15 19 23 26 28 29 27 27 29 29 29 30 30 32 33 33 31 31 32 34 39 43 42 41 43 45 47 49 49
32 34 35 36 37 35 34 34 35 37 35 31 31 29 28 27 25 22 20 19 19 18 16 14 13 12 11 11 9 7 6 6 6 6 6 6 7 7 7 8 9 9 9 10 10 10 10 11 12 15 16 17 18 19 20 20 20 20 19 18 17 16 15 14 14 14 15 15 16 17 19 22 25 28 27 28 30 29 30 31 30 30 32 34 34 33 33 35 37 39 41 43 43 43 44 46 47
33 35 36 37 37 35 34 36 36 37 36 32 32 31 28 27 26 22 20 18 17 16 15 13 12 11 11 10 9 7 6 6 6 6 6 6 7 7 7 8 9 9 10 10 10 10 10 11 13 15 16 17 18 19 20 20 21 21 21 20 20 19 18 17 16 15 15 16 16 17 18 20 23 25 25 27 29 29 31 32 29 27 30 33 36 36 35 35 36 37 40 42 43 43 44 45 45
34 35 36 37 37 36 36 38 37 37 37 34 34 32 28 26 25 22 19 17 16 14 13 13 11 11 10 9 8 8 7 7 7 6 6 6 6 7 7 8 9 9 10 10 10 10 11 12 14 15 16 17 18 19 21 21 22 22 22 22 22 22 22 21 19 18 17 17 17 18 18 19 21 23 22 24 28 30 31 31 28 27 28 30 34 37 37 37 38 38 40 42 42 42 43 45 46
34 35 36 37 38 38 38 39 39 38 38 37 37 35 29 25 24 21 19 17 15 14 13 12 12 12 11 9 9 9 8 8 7 7 6 7 7 7 7 8 9 10 10 11 11 11 11 13 14 15 17 18 19 20 20 21 22 22 23 24 24 24 24 24 23 22 20 18 18 18 19 20 20 22 22 22 25 28 29 28 27 27 27 29 32 34 36 38 40 41 42 43 42 40 41 43 46
33 36 36 37 38 39 39 39 40 39 40 40 39 36 29 25 23 20 18 17 15 14 14 14 12 11 10 10 10 9 9 8 8 7 7 7 7 8 8 8 9 10 11 11 11 12 12 14 15 16 17 18 19 20 21 21 22 22 23 24 25 26 26 25 25 25 24 22 21 20 19 20 21 21 22 21 22 24 25 26 26 28 30 31 32 32 34 36 38 42 44 45 44 42 43 43 43
32 35 36 37 38 39 40 40 42 41 41 41 41 37 31 26 23 20 18 16 15 15 15 13 12 10 10 10 10 10 9 9 9 8 7 7 7 8 8 8 9 10 11 12 12 13 14 15 16 16 17 18 19 20 21 22 22 23 24 24 26 27 27 27 26 26 26 25 24 22 20 20 21 22 22 22 22 21 22 23 25 28 31 34 34 33 33 34 37 41 43 47 52 50 46 43 42
33 36 38 39 40 42 43 43 45 43 40 41 42 41 36 29 23 21 20 18 15 13 13 12 12 11 10 10 10 10 10 9 9 9 8 8 8 8 8 9 10 11 12 13 13 14 15 16 17 17 17 18 19 20 21 21 22 23 24 25 26 27 28 28 27 27 27 27 26 25 23 21 21 22 22 23 23 23 22 22 23 25 28 33 35 35 34 34 36 38 40 47 55 54 46 44 42
36 40 40 40 42 44 44 45 46 45 43 42 42 42 41 34 26 22 21 19 14 12 13 12 12 12 11 11 11 11 11 10 10 10 9 9 9 9 9 9 10 10 11 13 13 14 15 16 17 17 18 18 19 20 21 21 22 24 24 25 26 27 28 28 28 28 28 28 28 27 25 23 22 22 23 23 24 24 24 24 24 23 24 28 32 35 37 36 36 37 39 42 47 47 44 43 43
38 41 41 42 44 45 46 47 47 46 46 45 42 42 41 35 27 23 22 20 16 13 13 12 12 13 12 12 12 12 12 12 11 11 11 11 11 10 10 10 10 10 11 12 13 14 15 16 17 17 18 18 19 20 21 21 23 24 25 26 26 27 28 29 29 30 30 30 29 29 28 26 25 23 24 24 25 25 25 25 26 26 26 26 28 32 35 37 38 38 39 40 42 43 43 44 43
41 41 41 44 46 46 47 48 48 49 50 46 43 42 40 34 28 24 22 20 17 14 13 13 13 13 13 12 13 13 13 13 12 12 12 12 12 11 11 11 11 11 11 12 13 14 14 15 16 17 18 19 19 20 21 22 23 24 25 26 27 28 28 29 30 30 31 31 31 30 29 28 28 26 25 25 26 26 26 26 27 27 28 28 28 29 31 35 38 39 40 41 41 41 42 43 44
43 42 42 46 47 46 47 48 50 51 49 44 42 41 40 36 29 26 24 21 19 16 13 13 14 14 14 13 13 13 13 14 13 13 13 13 13 13 13 13 13 13 13 13 14 14 15 15 16 17 18 19 20 21 22 23 24 25 26 27 27 28 29 29 30 31 32 32 32 31 30 30 30 30 28 27 27 27 28 28 28 28 29 29 30 30 32 33 36 38 39 41 42 42 42 42 43
44 43 44 49 48 45 45 47 51 51 44 39 40 40 41 39 31 26 24 22 21 18 16 14 15 15 16 14 13 13 14 14 14 14 14 14 15 15 15 16 16 16 16 16 15 15 16 16 16 17 18 19 21 22 23 24 25 26 27 27 28 29 29 29 30 32 33 33 33 32 32 31 31 32 32 30 29 28 29 29 29 29 30 31 32 34 36 37 37 38 39 41 42 44 44 43 43
44 44 48 52 49 46 46 43 45 45 40 38 39 40 41 38 30 27 26 24 21 20 18 17 16 17 17 16 16 15 15 14 15 16 16 16 17 17 18 18 18 17 17 17 16 16 16 16 16 17 18 19 20 21 23 24 25 26 28 28 28 29 29 29 30 32 34 34 34 33 33 33 33 33 34 34 32 30 30 31 31 31 32 33 36 39 41 42 43 43 42 43 43 44 45 45 45
45 46 50 52 48 50 50 43 40 40 37 37 39 41 40 35 29 26 25 24 22 21 20 19 18 18 18 18 17 16 15 15 15 16 18 18 18 18 18 18 19 19 19 19 18 17 16 16 16 17 17 18 19 21 22 24 25 27 28 29 29 29 29 30 30 32 34 35 35 34 34 35 35 35 35 36 36 34 32 32 32 33 34 35 39 42 45 46 46 46 46 45 46 46 46 46 47
47 45 49 52 49 50 49 41 39 40 37 37 40 41 37 32 28 25 24 24 23 22 22 20 19 19 18 18 17 16 16 16 16 17 19 20 20 19 19 19 19 20 20 20 19 18 17 17 17 17 17 18 19 20 22 23 25 27 29 30 30 30 30 31 31 32 35 36 36 36 36 36 37 37 37 38 38 37 35 34 34 34 35 37 39 43 45 47 47 48 48 48 48 48 48 48 48
49 47 51 55 51 48 47 43 42 44 44 42 41 38 32 29 28 25 25 26 25 24 23 22 21 20 20 20 19 18 17 18 19 19 20 21 21 21 21 21 21 20 21 21 20 19 18 17 17 17 18 19 20 20 22 23 25 27 28 30 31 31 31 32 33 34 35 36 37 37 37 37 38 39 39 39 40 40 39 37 36 36 37 37 38 41 45 47 49 50 51 51 50 50 49 50 50
50 51 53 52 48 49 51 50 47 49 51 44 38 36 32 31 30 27 27 27 26 25 24 24 24 23 23 23 22 21 21 22 22 22 22 22 22 23 23 23 23 23 22 23 22 21 20 19 19 19 19 20 20 21 22 24 26 27 28 29 31 32 33 34 35 35 36 37 38 38 37 38 39 41 41 42 42 42 42 40 38 38 39 39 39 40 44 47 49 51 53 54 54 53 52 51 51
49 51 51 50 51 53 54 54 52 52 52 43 36 36 34 32 32 30 28 27 25 24 24 24 26 25 24 23 23 22 22 24 24 24 24 23 23 23 24 24 25 24 24 24 23 23 22 21 21 22 22 22 22 22 23 25 26 27 28 29 30 32 34 34 35 37 37 38 39 40 39 39 40 42 43 43 44 44 44 43 41 40 40 40 40 41 43 48 52 54 56 57 57 55 54 53 53
49 50 49 50 55 55 54 58 56 53 52 44 37 36 34 32 31 30 29 28 25 24 24 25 27 27 25 24 23 23 23 25 26 26 25 24 24 24 25 26 26 25 25 26 25 25 24 24 24 24 24 24 24 25 26 28 28 29 29 30 31 33 34 36 36 37 38 39 40 41 40 41 42 44 45 45 45 46 47 46 44 42 42 42 42 43 44 49 54 58 59 59 58 55 54 54 53
51 51 52 54 57 55 54 56 53 50 51 47 42 38 32 30 30 30 29 27 26 25 25 26 27 27 27 26 25 24 24 26 27 27 26 25 26 27 27 29 28 27 27 28 28 27 26 26 26 26 27 27 28 29 29 30 30 31 31 32 32 34 35 37 38 39 40 40 41 42 42 43 43 45 46 47 47 48 49 49 46 44 44 44 44 45 46 51 57 60 61 60 59 57 55 54 53
52 53 56 58 58 58 57 56 51 51 51 48 48 44 33 27 28 28 28 27 26 27 28 29 30 29 28 28 26 26 26 27 27 27 27 26 27 29 30 32 32 31 30 29 29 29 29 29 29 29 30 30 30 31 31 31 31 32 32 33 34 35 35 37 39 41 42 42 42 43 43 44 45 46 48 49 49 50 51 51 49 46 45 46 46 47 50 53 57 60 62 62 60 59 57 56 55
50 51 54 55 57 60 60 56 51 52 52 48 49 47 34 27 29 28 28 29 28 29 32 33 33 32 31 31 30 31 30 29 29 29 28 28 29 31 33 34 34 33 32 32 31 31 31 31 32 31 31 32 31 32 32 32 32 32 33 34 34 35 36 36 38 41 43 44 44 44 44 45 46 48 50 50 51 52 52 53 52 49 47 48 49 50 52 55 59 62 64 63 62 60 59 58 58